This demonstration page uses our WeatherBlox Daily Observations layout. Learn more.

40.92945, -100.16068

Hourly Observations for January 24, 2017

Temp ( °F °C ) Dew Point ( °F °C ) Humidity (%) Winds ( mph kmh ) Pressure ( in mb ) Visibility ( mi km ) Precip ( " mm )
12:15 am 00:15 Cloudy with Mist and Fog 33 0.4 32 0 97 97 E 9 15 29.71 1006 3 4.82802 0 0
12:35 am 00:35 Cloudy with Mist and Fog 33 0.3 32 -0.1 97 97 E 12 19 29.71 1006 3 4.82802 0 0
12:55 am 00:55 Cloudy with Mist and Fog 32 0.2 32 -0.1 98 98 E 13 20 29.74 1007 3 4.82802 0 0
1:15 am 01:15 Cloudy with Mist and Fog 32 0.2 32 -0.2 97 97 E 13 20 29.74 1007 2.5 4.02335 0 0
1:35 am 01:35 Cloudy with Mist and Fog 32 0.1 32 -0.2 98 98 E 12 19 29.74 1007 2 3.21868 0 0
1:55 am 01:55 Cloudy with Mist and Fog 32 0 31 -0.4 97 97 E 14 22 29.74 1007 1.5 2.41401 0 0
2:15 am 02:15 Cloudy with Mist and Fog 32 0 31 -0.5 96 96 E 14 22 29.68 1005 1 1.60934 0 0
2:35 am 02:35 Cloudy with Mist and Fog 32 0 31 -0.5 96 96 E 13 20 29.68 1005 1.25 2.011675 0 0
2:55 am 02:55 Cloudy with Mist and Fog 32 0 31 -0.3 98 98 E 14 22 29.68 1005 1.25 2.011675 0 0
3:15 am 03:15 Cloudy with Mist and Fog 32 0 31 -0.4 97 97 E 13 20 29.68 1005 0.75 1.207005 0 0
3:35 am 03:35 Cloudy with Mist and Fog 32 0.1 32 -0.2 98 98 E 16 26 29.68 1005 0.75 1.207005 0 0
3:55 am 03:55 Cloudy with Mist and Fog 32 0.1 32 -0.2 98 98 E 14 22 29.65 1004 0.75 1.207005 0 0
4:15 am 04:15 Cloudy with Mist and Fog 32 0.2 32 -0.1 98 98 E 15 24 29.65 1004 1.5 2.41401 0 0
4:35 am 04:35 Cloudy with Mist and Fog 32 0.2 32 -0.1 98 98 E 13 20 29.65 1004 2 3.21868 0 0
4:55 am 04:55 Cloudy with Mist and Fog 32 0.2 32 -0.2 97 97 E 14 22 29.62 1003 2.5 4.02335 0 0
5:15 am 05:15 Cloudy with Mist and Fog 32 0.1 32 -0.2 98 98 E 14 22 29.62 1003 3 4.82802 0 0
5:35 am 05:35 Cloudy with Mist and Fog 32 0.2 31 -0.3 96 96 E 14 22 29.65 1004 3 4.82802 0 0
5:55 am 05:55 Cloudy with Mist and Fog 32 0.1 31 -0.5 96 96 E 12 19 29.62 1003 3 4.82802 0 0
6:15 am 06:15 Cloudy with Mist and Fog 32 0.1 31 -0.6 95 95 E 12 19 29.65 1004 4 6.43736 0 0
6:35 am 06:35 Cloudy with Mist and Fog 32 0.2 31 -0.7 94 94 ENE 10 17 29.65 1004 4 6.43736 0 0
6:55 am 06:55 Cloudy with Mist and Fog 32 0.2 31 -0.7 94 94 ENE 15 24 29.62 1003 4 6.43736 0 0
7:15 am 07:15 Cloudy with Mist and Fog 32 0 31 -0.7 95 95 ENE 17 28 29.62 1003 3 4.82802 0 0
7:35 am 07:35 Cloudy with Mist and Fog 32 0 31 -0.8 94 94 ENE 18 30 29.62 1003 3 4.82802 0 0
7:55 am 07:55 Cloudy with Mist and Fog 32 0 30 -0.9 94 94 ENE 17 28 29.59 1002 2.5 4.02335 0 0
8:15 am 08:15 Cloudy with Mist and Fog 32 0 30 -0.9 94 94 E 20 31 29.62 1003 2 3.21868 0 0
8:35 am 08:35 Cloudy with Mist and Fog 32 0 31 -0.8 94 94 E 10 17 29.65 1004 2.5 4.02335 0 0
8:55 am 08:55 Cloudy with Mist and Fog 32 0 31 -0.8 94 94 E 12 19 29.65 1004 2 3.21868 0 0
9:15 am 09:15 Cloudy with Mist and Fog 32 0 30 -0.9 94 94 E 14 22 29.65 1004 2.5 4.02335 0 0
9:35 am 09:35 Cloudy with Light Snow 32 0 30 -1 93 93 E 10 17 29.65 1004 1.5 2.41401 0 0
9:55 am 09:55 Cloudy with Light Snow 32 0 30 -1 93 93 E 10 17 29.65 1004 2.5 4.02335 0 0
10:15 am 10:15 Cloudy with Light Snow 32 -0.2 30 -1.1 94 94 E 12 19 29.62 1003 1 1.60934 0 0
10:35 am 10:35 Cloudy with Light Snow 32 -0.2 30 -1.1 94 94 E 16 26 29.62 1003 1.75 2.816345 0 0
10:55 am 10:55 Cloudy with Light Snow 32 -0.2 30 -1.2 93 93 E 13 20 29.62 1003 0.75 1.207005 0.01 0.254
11:15 am 11:15 Cloudy with Snow 32 -0.1 30 -1 94 94 ENE 10 17 29.62 1003 0.25 0.402335 0 0
11:35 am 11:35 Cloudy with Snow 31 -0.3 30 -1.2 94 94 ENE 12 19 29.59 1002 0.25 0.402335 0.01 0.254
11:55 am 11:55 Cloudy with Snow 31 -0.3 30 -1.2 94 94 ENE 14 22 29.59 1002 0.5 0.80467 0.02 0.508
12:15 pm 12:15 Cloudy with Snow 31 -0.5 29 -1.5 93 93 NNW 5 7 29.62 1003 0.5 0.80467 0 0
12:35 pm 12:35 Cloudy with Snow 31 -0.3 30 -1.2 94 94 Calm 29.62 1003 0.25 0.402335 0.02 0.508
12:55 pm 12:55 Cloudy with Light Snow 31 -0.3 30 -1.2 94 94 NNE 9 15 29.59 1002 0.75 1.207005 0.07 1.778
1:15 pm 13:15 Cloudy with Light Rain 31 -0.3 30 -1.3 93 93 N 5 7 29.59 1002 3 4.82802 0.03 0.762
1:35 pm 13:35 Cloudy 32 -0.2 29 -1.5 91 91 N 6 9 29.59 1002 7 11.26538 0.04 1.016
1:55 pm 13:55 Cloudy 32 0 29 -1.6 89 89 N 8 13 29.59 1002 7 11.26538 0.04 1.016
2:15 pm 14:15 Cloudy with Mist and Fog 32 0 29 -1.6 89 89 N 9 15 29.59 1002 5 8.0467 0 0
2:35 pm 14:35 Cloudy 32 0.1 29 -1.7 88 88 N 8 13 29.59 1002 10 16.0934 0 0
2:55 pm 14:55 Cloudy 32 0.1 29 -1.8 87 87 N 8 13 29.59 1002 10 16.0934 0 0
3:15 pm 15:15 Cloudy 32 0.2 29 -1.8 87 87 N 9 15 29.59 1002 10 16.0934 0 0
3:35 pm 15:35 Cloudy 32 0.2 29 -1.9 86 86 N 8 13 29.59 1002 10 16.0934 0 0
3:55 pm 15:55 Cloudy 32 0.2 28 -2 85 85 N 10 17 29.59 1002 10 16.0934 0 0
4:15 pm 16:15 Cloudy 32 0.1 28 -2 86 86 N 8 13 29.62 1003 10 16.0934 0 0
4:35 pm 16:35 Cloudy 32 0 28 -2.2 85 85 N 8 13 29.62 1003 10 16.0934 0 0
4:55 pm 16:55 Cloudy 32 0 28 -2 87 87 N 8 13 29.62 1003 10 16.0934 0 0
5:15 pm 17:15 Cloudy 32 -0.1 28 -2 87 87 N 8 13 29.65 1004 10 16.0934 0 0
5:35 pm 17:35 Cloudy 31 -0.3 28 -2.5 85 85 N 9 15 29.65 1004 10 16.0934 0 0
5:55 pm 17:55 Cloudy 31 -0.5 28 -2.5 87 87 N 12 19 29.68 1005 10 16.0934 0 0
6:15 pm 18:15 Cloudy 31 -0.5 27 -2.7 85 85 N 10 17 29.68 1005 10 16.0934 0 0
6:35 pm 18:35 Cloudy 31 -0.6 28 -2.5 87 87 NNW 13 20 29.71 1006 10 16.0934 0 0
6:55 pm 18:55 Cloudy 30 -0.9 28 -2.4 90 90 NNW 13 20 29.71 1006 7 11.26538 0 0
7:15 pm 19:15 Cloudy 30 -1 27 -2.7 88 88 NNW 14 22 29.74 1007 10 16.0934 0 0
7:35 pm 19:35 Cloudy 30 -1.1 27 -2.7 89 89 NNW 16 26 29.74 1007 10 16.0934 0 0
7:55 pm 19:55 Cloudy 30 -1.3 27 -3 88 88 NNW 17 28 29.77 1008 7 11.26538 0 0
8:15 pm 20:15 Cloudy with Mist and Fog 29 -1.6 27 -3 90 90 NNW 20 31 29.77 1008 5 8.0467 0 0
8:35 pm 20:35 Cloudy with Mist and Fog 29 -1.6 27 -3 90 90 NNW 17 28 29.77 1008 4 6.43736 0 0
8:55 pm 20:55 Cloudy 29 -1.5 26 -3.3 88 88 NNW 18 30 29.77 1008 7 11.26538 0 0
9:15 pm 21:15 Cloudy 30 -1.3 26 -3.5 85 85 NNW 20 31 29.77 1008 10 16.0934 0 0
9:35 pm 21:35 Cloudy 30 -1.3 26 -3.5 85 85 N 16 26 29.8 1009 10 16.0934 0 0
9:55 pm 21:55 Cloudy 29 -1.5 25 -3.8 85 85 NNW 22 35 29.8 1009 10 16.0934 0 0
10:15 pm 22:15 Cloudy 27 -2.9 23 -5.1 85 85 NNW 22 35 29.83 1010 10 16.0934 0 0
10:35 pm 22:35 Cloudy 26 -3.4 22 -5.7 84 84 NW 18 30 29.83 1010 10 16.0934 0 0
10:55 pm 22:55 Cloudy 25 -3.8 21 -6.3 83 83 NW 16 26 29.85 1011 10 16.0934 0 0
11:15 pm 23:15 Cloudy 25 -4 20 -6.6 82 82 NW 18 30 29.85 1011 10 16.0934 0 0
11:35 pm 23:35 Cloudy 24 -4.2 19 -7 81 81 NW 23 37 29.85 1011 10 16.0934 0 0
11:55 pm 23:55 Cloudy 24 -4.5 19 -7.4 80 80 NW 25 41 29.85 1011 10 16.0934 0 0

Powered by AerisWeather